contact:dominique.lefevre@mio.osupytheas.fr, maurice.libes@osupytheas.fr, didier.mallarino@osupytheas.fr
Project:EMSO http://www.emso-fr.org/EMSO-France
Depth: 2436.0 m
Title:EMSO Ligure Ouest : Data MII capteur AQUADOPP
Date,Latitude,Longitude,X_East,Y_North,Z_Up,Amplitude_X,Amplitude_Y,Amplitude_Z,Batterie,SoundSpeed,Heading,Pitch,Roll,Pressure,TIS,Speed,Direction
, degrees North, degrees East, m.s-1, m.s-1,m.s-1, 1, 1, 1, Volt, m.s-1, degree, degree, degree, dbar, degree_C, m.s-1, degree
2023-01-15T00:04:03,42.805,6.029,0.022,-0.02,-0.015,105.0,102.0,102.0,13.4,1505.2,330.1,-0.8,1.8,2471.213,13.28,0.029,132.3
2023-01-15T00:07:03,42.805,6.029,0.021,-0.028,-0.038,104.0,103.0,103.0,13.4,1505.2,325.8,-0.8,1.8,2471.264,13.28,0.035,143.1
2023-01-15T00:10:03,42.805,6.029,0.014,-0.029,-0.03,104.0,104.0,103.0,13.4,1505.2,326.8,-0.8,1.8,2471.213,13.28,0.032,154.2
2023-01-15T00:13:03,42.805,6.029,0.017,-0.038,-0.016,105.0,102.0,103.0,13.3,1505.2,317.5,-0.8,1.8,2471.204,13.29,0.041,155.9
2023-01-15T00:16:03,42.805,6.029,0.027,-0.028,-0.05,104.0,103.0,103.0,13.3,1505.2,318.0,-0.8,1.8,2471.264,13.29,0.038,136.0
2023-01-15T00:19:03,42.805,6.029,0.033,-0.022,-0.014,104.0,103.0,103.0,13.4,1505.2,331.1,-0.8,1.8,2471.195,13.29,0.039,123.7
2023-01-15T00:22:03,42.805,6.029,0.018,-0.026,-0.011,105.0,105.0,102.0,13.4,1505.2,328.3,-0.8,1.8,2471.202,13.29,0.031,145.3
2023-01-15T00:25:03,42.805,6.029,0.033,-0.041,-0.046,104.0,104.0,102.0,13.3,1505.2,322.1,-0.7,1.8,2471.205,13.29,0.052,141.2
2023-01-15T00:28:03,42.805,6.029,0.026,-0.031,-0.014,103.0,104.0,103.0,13.3,1505.2,322.3,-0.8,1.8,2471.243,13.29,0.04,140.0
2023-01-15T00:31:03,42.805,6.029,0.028,-0.038,-0.009,103.0,104.0,102.0,13.4,1505.2,329.8,-0.7,1.8,2471.22,13.29,0.047,143.6
2023-01-15T00:34:03,42.805,6.029,0.027,-0.035,0.023,104.0,104.0,103.0,13.4,1505.2,328.6,-0.8,1.8,2471.19,13.29,0.044,142.3
2023-01-15T00:37:03,42.805,6.029,0.042,-0.018,-0.002,105.0,103.0,103.0,13.4,1505.2,327.5,-0.8,1.9,2471.211,13.29,0.045,113.2
2023-01-15T00:40:03,42.805,6.029,0.011,-0.011,-0.02,105.0,103.0,102.0,13.3,1505.2,338.7,-0.8,1.8,2471.231,13.29,0.015,135.0
2023-01-15T00:43:03,42.805,6.029,0.02,-0.029,-0.007,104.0,104.0,102.0,13.3,1505.2,328.2,-0.7,1.8,2471.202,13.29,0.035,145.4
2023-01-15T00:46:03,42.805,6.029,0.019,-0.054,-0.024,105.0,104.0,103.0,13.4,1505.2,335.8,-0.7,1.8,2471.207,13.29,0.057,160.6
2023-01-15T00:49:03,42.805,6.029,0.006,-0.023,0.011,105.0,104.0,102.0,13.4,1505.2,337.1,-0.8,1.8,2471.191,13.29,0.023,165.4
2023-01-15T00:52:03,42.805,6.029,-0.004,-0.017,-0.022,104.0,103.0,101.0,13.4,1505.2,324.5,-0.7,1.8,2471.229,13.29,0.017,193.2
2023-01-15T00:55:03,42.805,6.029,0.015,-0.032,-0.024,104.0,103.0,103.0,13.3,1505.2,317.5,-0.8,1.8,2471.194,13.29,0.035,154.9
2023-01-15T00:58:03,42.805,6.029,0.034,-0.051,-0.041,103.0,104.0,102.0,13.4,1505.2,330.9,-0.8,1.8,2471.183,13.29,0.061,146.3
2023-01-15T01:04:03,42.805,6.029,0.01,-0.031,-0.035,105.0,105.0,104.0,13.4,1505.2,333.4,-0.7,1.8,2471.273,13.28,0.032,162.1
2023-01-15T01:07:03,42.805,6.029,0.04,-0.038,-0.035,106.0,104.0,103.0,13.4,1505.2,332.2,-0.7,1.8,2471.237,13.28,0.055,133.5
2023-01-15T01:10:03,42.805,6.029,0.021,-0.023,0.0,104.0,103.0,102.0,13.4,1505.2,325.8,-0.8,1.8,2471.226,13.28,0.031,137.6
2023-01-15T01:13:03,42.805,6.029,0.006,-0.026,0.006,105.0,105.0,102.0,13.4,1505.2,328.6,-0.8,1.8,2471.232,13.29,0.026,167.0
2023-01-15T01:16:03,42.805,6.029,0.023,-0.051,-0.037,104.0,104.0,102.0,13.3,1505.2,323.7,-0.8,1.8,2471.224,13.29,0.055,155.7
2023-01-15T01:19:03,42.805,6.029,-0.004,-0.016,-0.016,103.0,104.0,103.0,13.3,1505.2,331.0,-0.8,1.8,2471.226,13.29,0.016,194.0
2023-01-15T01:22:03,42.805,6.029,0.029,-0.023,-0.032,104.0,103.0,102.0,13.4,1505.2,324.5,-0.7,1.8,2471.208,13.29,0.037,128.4
2023-01-15T01:25:03,42.805,6.029,0.039,-0.013,-0.01,104.0,103.0,103.0,13.4,1505.2,322.7,-0.7,1.8,2471.206,13.29,0.041,108.4
2023-01-15T01:28:03,42.805,6.029,-0.005,-0.035,0.001,104.0,104.0,103.0,13.4,1505.2,327.1,-0.8,1.8,2471.2,13.29,0.035,188.1
2023-01-15T01:31:03,42.805,6.029,0.005,-0.036,-0.033,104.0,103.0,103.0,13.4,1505.2,329.6,-0.8,1.8,2471.227,13.29,0.036,172.1
2023-01-15T01:34:03,42.805,6.029,0.046,-0.031,-0.021,104.0,103.0,103.0,13.4,1505.2,325.3,-0.8,1.8,2471.189,13.29,0.055,124.0
2023-01-15T01:37:03,42.805,6.029,0.058,-0.035,-0.05,103.0,103.0,103.0,13.4,1505.2,318.8,-0.8,1.8,2471.213,13.29,0.067,121.1
2023-01-15T01:40:03,42.805,6.029,0.021,-0.037,-0.011,104.0,103.0,103.0,13.3,1505.2,323.7,-0.7,1.8,2471.157,13.29,0.042,150.4
2023-01-15T01:43:03,42.805,6.029,0.001,-0.018,-0.018,103.0,103.0,102.0,13.4,1505.2,318.6,-0.8,1.8,2471.22,13.29,0.018,176.8
2023-01-15T01:46:03,42.805,6.029,0.019,-0.032,-0.022,105.0,105.0,102.0,13.4,1505.2,321.1,-0.8,1.8,2471.207,13.29,0.037,149.3
2023-01-15T01:49:03,42.805,6.029,0.029,-0.025,-0.009,103.0,103.0,103.0,13.3,1505.2,321.0,-0.8,1.8,2471.212,13.29,0.038,130.8
2023-01-15T01:52:03,42.805,6.029,0.018,-0.023,-0.036,104.0,103.0,102.0,13.3,1505.2,337.7,-0.8,1.8,2471.202,13.29,0.029,142.0
2023-01-15T01:55:03,42.805,6.029,0.033,-0.017,0.001,103.0,104.0,102.0,13.4,1505.2,316.6,-0.7,1.8,2471.214,13.29,0.037,117.3
2023-01-15T01:58:03,42.805,6.029,0.017,-0.024,-0.004,105.0,104.0,102.0,13.4,1505.2,326.0,-0.7,1.8,2471.174,13.29,0.029,144.7
2023-01-15T02:04:03,42.805,6.029,0.041,-0.042,-0.028,105.0,104.0,102.0,13.3,1505.2,324.1,-0.8,1.8,2471.233,13.28,0.058,135.7
2023-01-15T02:07:03,42.805,6.029,0.011,-0.03,-0.032,104.0,103.0,102.0,13.3,1505.2,332.1,-0.7,1.8,2471.246,13.28,0.031,159.9
2023-01-15T02:10:03,42.805,6.029,0.033,-0.048,-0.022,104.0,103.0,103.0,13.4,1505.2,335.2,-0.7,1.8,2471.238,13.28,0.058,145.5
2023-01-15T02:13:03,42.805,6.029,0.04,-0.013,-0.004,104.0,103.0,102.0,13.4,1505.2,316.6,-0.8,1.8,2471.214,13.28,0.042,108.0
2023-01-15T02:16:03,42.805,6.029,0.05,-0.032,0.007,104.0,103.0,103.0,13.4,1505.2,322.5,-0.7,1.8,2471.189,13.29,0.059,122.6
2023-01-15T02:19:03,42.805,6.029,0.02,-0.027,-0.043,104.0,104.0,102.0,13.3,1505.2,322.3,-0.8,1.8,2471.227,13.29,0.033,143.5
2023-01-15T02:22:03,42.805,6.029,0.027,-0.061,-0.015,104.0,103.0,103.0,13.4,1505.2,330.9,-0.7,1.8,2471.188,13.29,0.066,156.1
2023-01-15T02:25:03,42.805,6.029,0.018,-0.032,0.0,104.0,102.0,103.0,13.3,1505.2,333.0,-0.8,1.8,2471.193,13.29,0.036,150.6
2023-01-15T02:28:03,42.805,6.029,0.019,-0.037,-0.03,104.0,103.0,102.0,13.3,1505.2,332.6,-0.8,1.8,2471.203,13.29,0.041,152.8
2023-01-15T02:31:03,42.805,6.029,0.013,-0.033,-0.006,103.0,103.0,102.0,13.4,1505.2,328.9,-0.7,1.8,2471.16,13.29,0.035,158.5
2023-01-15T02:34:03,42.805,6.029,0.035,-0.043,-0.013,105.0,104.0,102.0,13.4,1505.2,316.5,-0.7,1.8,2471.173,13.29,0.055,140.9
2023-01-15T02:37:03,42.805,6.029,0.009,-0.033,-0.009,105.0,103.0,103.0,13.3,1505.2,326.5,-0.8,1.8,2471.169,13.29,0.034,164.7
2023-01-15T02:40:03,42.805,6.029,-0.004,-0.047,-0.034,104.0,104.0,102.0,13.4,1505.2,338.2,-0.7,1.8,2471.172,13.29,0.047,184.9
2023-01-15T02:43:03,42.805,6.029,0.014,-0.032,-0.034,104.0,105.0,103.0,13.4,1505.2,331.4,-0.8,1.8,2471.154,13.29,0.034,156.4
2023-01-15T02:46:03,42.805,6.029,0.031,-0.021,-0.011,104.0,104.0,102.0,13.3,1505.2,322.1,-0.8,1.8,2471.175,13.29,0.037,124.1
2023-01-15T02:49:03,42.805,6.029,0.014,-0.035,-0.008,103.0,103.0,102.0,13.4,1505.2,329.5,-0.8,1.8,2471.173,13.29,0.037,158.2
2023-01-15T02:52:03,42.805,6.029,0.053,-0.041,-0.027,105.0,103.0,103.0,13.4,1505.2,328.7,-0.8,1.8,2471.18,13.29,0.067,127.7
2023-01-15T02:55:03,42.805,6.029,0.019,-0.02,0.024,104.0,104.0,102.0,13.4,1505.2,335.0,-0.7,1.8,2471.189,13.29,0.027,136.5
2023-01-15T02:58:03,42.805,6.029,0.035,-0.041,-0.043,104.0,103.0,102.0,13.4,1505.2,325.3,-0.8,1.8,2471.195,13.29,0.053,139.5
2023-01-15T03:04:02,42.805,6.029,0.019,-0.015,-0.025,104.0,103.0,102.0,13.3,1505.2,324.5,-0.8,1.8,2471.234,13.28,0.024,128.3
2023-01-15T03:07:03,42.805,6.029,-0.003,-0.023,-0.035,104.0,102.0,103.0,13.4,1505.2,330.5,-0.7,1.9,2471.193,13.28,0.023,187.4
2023-01-15T03:10:02,42.805,6.029,0.028,-0.028,-0.026,104.0,103.0,103.0,13.4,1505.2,325.3,-0.8,1.8,2471.187,13.28,0.039,135.0
2023-01-15T03:13:02,42.805,6.029,0.012,-0.035,-0.007,104.0,105.0,103.0,13.3,1505.2,337.0,-0.8,1.8,2471.209,13.28,0.037,161.1
2023-01-15T03:16:02,42.805,6.029,0.035,-0.051,-0.026,104.0,103.0,102.0,13.3,1505.2,322.8,-0.7,1.8,2471.217,13.29,0.061,145.5
2023-01-15T03:19:02,42.805,6.029,0.001,-0.022,-0.036,103.0,103.0,102.0,13.4,1505.2,322.3,-0.8,1.8,2471.198,13.29,0.022,177.4
2023-01-15T03:22:02,42.805,6.029,0.028,-0.043,-0.034,104.0,102.0,104.0,13.4,1505.2,335.2,-0.7,1.8,2471.214,13.29,0.051,146.9
2023-01-15T03:25:03,42.805,6.029,0.031,-0.061,-0.033,103.0,103.0,103.0,13.4,1505.2,330.3,-0.8,1.8,2471.201,13.29,0.068,153.1
2023-01-15T03:28:03,42.805,6.029,0.039,-0.05,-0.004,104.0,103.0,103.0,13.4,1505.2,333.4,-0.7,1.8,2471.182,13.29,0.063,142.0
2023-01-15T03:31:03,42.805,6.029,0.022,-0.033,-0.013,105.0,103.0,103.0,13.4,1505.2,329.8,-0.8,1.9,2471.157,13.29,0.039,146.3
2023-01-15T03:34:03,42.805,6.029,0.04,-0.038,-0.004,103.0,103.0,103.0,13.4,1505.2,325.8,-0.8,1.8,2471.158,13.29,0.055,133.5
2023-01-15T03:37:02,42.805,6.029,0.003,-0.042,-0.034,105.0,103.0,103.0,13.4,1505.2,323.2,-0.8,1.8,2471.132,13.29,0.042,175.9
2023-01-15T03:40:03,42.805,6.029,0.029,-0.035,0.006,104.0,104.0,101.0,13.4,1505.2,323.4,-0.7,1.8,2471.16,13.29,0.045,140.4
2023-01-15T03:43:03,42.805,6.029,0.029,-0.037,-0.048,103.0,103.0,102.0,13.3,1505.2,321.4,-0.7,1.8,2471.191,13.29,0.047,141.9
2023-01-15T03:46:03,42.805,6.029,0.033,-0.047,0.001,104.0,103.0,103.0,13.4,1505.2,326.7,-0.8,1.8,2471.176,13.29,0.057,144.9
2023-01-15T03:49:03,42.805,6.029,0.027,-0.043,-0.015,103.0,103.0,102.0,13.3,1505.2,321.3,-0.8,1.8,2471.174,13.29,0.05,147.9
2023-01-15T03:52:03,42.805,6.029,0.05,-0.036,-0.023,104.0,104.0,102.0,13.4,1505.2,317.5,-0.8,1.8,2471.164,13.29,0.061,125.8
2023-01-15T03:55:03,42.805,6.029,0.028,-0.037,-0.035,104.0,103.0,102.0,13.4,1505.2,326.9,-0.8,1.8,2471.142,13.29,0.046,142.9
2023-01-15T03:58:03,42.805,6.029,0.024,-0.049,-0.008,104.0,104.0,103.0,13.4,1505.2,331.3,-0.8,1.8,2471.135,13.29,0.054,153.9
2023-01-15T04:04:02,42.805,6.029,0.039,-0.025,0.003,103.0,102.0,103.0,13.4,1505.2,320.0,-0.8,1.8,2471.186,13.28,0.046,122.7
2023-01-15T04:07:03,42.805,6.029,0.035,-0.014,0.002,103.0,103.0,102.0,13.4,1505.2,321.5,-0.7,1.8,2471.247,13.28,0.037,111.8
2023-01-15T04:10:03,42.805,6.029,0.026,-0.013,0.001,103.0,103.0,102.0,13.4,1505.2,329.1,-0.8,1.8,2471.167,13.28,0.029,116.6
2023-01-15T04:13:03,42.805,6.029,0.039,-0.035,-0.022,104.0,102.0,102.0,13.4,1505.2,321.1,-0.8,1.8,2471.185,13.28,0.052,131.9
2023-01-15T04:16:03,42.805,6.029,0.041,-0.025,-0.018,103.0,104.0,103.0,13.4,1505.2,325.0,-0.7,1.8,2471.189,13.29,0.048,121.4
2023-01-15T04:19:03,42.805,6.029,0.018,-0.046,-0.023,103.0,103.0,102.0,13.4,1505.2,336.2,-0.8,1.8,2471.158,13.29,0.049,158.6
2023-01-15T04:22:03,42.805,6.029,0.026,-0.03,-0.03,104.0,102.0,102.0,13.3,1505.2,318.1,-0.8,1.8,2471.132,13.29,0.039,139.1
2023-01-15T04:25:03,42.805,6.029,0.052,-0.025,-0.012,103.0,104.0,102.0,13.3,1505.2,329.1,-0.7,1.8,2471.192,13.29,0.057,115.7
2023-01-15T04:28:03,42.805,6.029,0.015,-0.028,-0.051,103.0,103.0,102.0,13.4,1505.2,323.2,-0.8,1.8,2471.164,13.29,0.031,151.8
2023-01-15T04:31:03,42.805,6.029,0.017,-0.046,-0.03,103.0,103.0,102.0,13.3,1505.2,320.9,-0.7,1.8,2471.13,13.29,0.049,159.7
2023-01-15T04:34:03,42.805,6.029,0.019,-0.04,-0.003,104.0,102.0,102.0,13.4,1505.2,328.1,-0.7,1.8,2471.172,13.29,0.044,154.6
2023-01-15T04:37:03,42.805,6.029,0.033,-0.038,0.006,104.0,101.0,101.0,13.3,1505.2,331.5,-0.8,1.8,2471.148,13.29,0.05,139.0
2023-01-15T04:40:03,42.805,6.029,0.034,-0.041,-0.033,104.0,104.0,101.0,13.4,1505.2,324.1,-0.8,1.8,2471.174,13.29,0.053,140.3
2023-01-15T04:43:03,42.805,6.029,0.027,-0.046,-0.012,103.0,102.0,102.0,13.4,1505.2,334.6,-0.8,1.9,2471.181,13.29,0.053,149.6
2023-01-15T04:46:03,42.805,6.029,0.022,-0.024,-0.022,103.0,102.0,102.0,13.4,1505.2,324.5,-0.8,1.8,2471.171,13.29,0.032,137.5
2023-01-15T04:49:03,42.805,6.029,0.031,-0.034,-0.02,103.0,102.0,102.0,13.4,1505.2,328.3,-0.7,1.8,2471.171,13.29,0.046,137.6
2023-01-15T04:52:03,42.805,6.029,0.006,-0.029,-0.038,103.0,101.0,101.0,13.4,1505.2,324.5,-0.7,1.8,2471.145,13.29,0.029,168.3
2023-01-15T04:55:03,42.805,6.029,0.049,-0.038,-0.038,103.0,102.0,103.0,13.4,1505.2,316.0,-0.8,1.8,2471.117,13.29,0.062,127.8
2023-01-15T04:58:03,42.805,6.029,-0.003,-0.027,-0.015,103.0,103.0,102.0,13.4,1505.2,323.7,-0.7,1.9,2471.176,13.29,0.027,186.3
2023-01-15T05:04:03,42.805,6.029,0.011,-0.041,-0.038,104.0,101.0,103.0,13.4,1505.2,324.6,-0.7,1.8,2471.164,13.28,0.042,165.0
2023-01-15T05:07:03,42.805,6.029,0.025,-0.041,-0.042,102.0,103.0,102.0,13.4,1505.2,324.5,-0.8,1.8,2471.191,13.28,0.048,148.6
2023-01-15T05:10:03,42.805,6.029,0.035,-0.057,-0.017,102.0,102.0,101.0,13.4,1505.2,317.2,-0.7,1.9,2471.204,13.28,0.066,148.4
2023-01-15T05:13:03,42.805,6.029,0.023,-0.054,-0.056,102.0,102.0,102.0,13.4,1505.2,334.5,-0.7,1.8,2471.197,13.28,0.058,156.9
2023-01-15T05:16:03,42.805,6.029,0.021,-0.033,-0.022,101.0,102.0,103.0,13.4,1505.2,333.0,-0.8,1.8,2471.17,13.28,0.039,147.5
2023-01-15T05:19:03,42.805,6.029,0.048,-0.035,0.019,104.0,103.0,102.0,13.4,1505.2,319.9,-0.8,1.8,2471.158,13.29,0.059,126.1
2023-01-15T05:22:03,42.805,6.029,0.022,-0.036,-0.038,103.0,101.0,102.0,13.4,1505.2,326.7,-0.8,1.8,2471.137,13.29,0.042,148.6
2023-01-15T05:25:03,42.805,6.029,0.007,-0.044,-0.028,102.0,103.0,102.0,13.4,1505.2,329.3,-0.8,1.8,2471.146,13.29,0.044,171.0
2023-01-15T05:28:03,42.805,6.029,0.015,-0.03,-0.056,103.0,103.0,102.0,13.3,1505.2,317.5,-0.7,1.8,2471.15,13.29,0.033,153.4
2023-01-15T05:31:03,42.805,6.029,0.007,-0.039,-0.011,104.0,102.0,102.0,13.4,1505.2,339.0,-0.8,1.8,2471.153,13.29,0.039,169.8
2023-01-15T05:34:03,42.805,6.029,0.036,-0.042,-0.069,103.0,104.0,102.0,13.3,1505.2,322.9,-0.8,1.8,2471.119,13.29,0.055,139.4
2023-01-15T05:37:03,42.805,6.029,0.007,-0.017,-0.04,104.0,102.0,103.0,13.4,1505.2,325.9,-0.7,1.8,2471.156,13.29,0.018,157.6
2023-01-15T05:40:03,42.805,6.029,0.032,-0.063,-0.033,103.0,103.0,103.0,13.4,1505.2,323.4,-0.7,1.8,2471.155,13.29,0.07,153.1
2023-01-15T05:43:03,42.805,6.029,0.032,-0.037,-0.022,103.0,100.0,103.0,13.3,1505.2,327.3,-0.8,1.8,2471.145,13.29,0.048,139.1
2023-01-15T05:46:03,42.805,6.029,0.027,-0.033,-0.009,102.0,103.0,103.0,13.3,1505.2,318.6,-0.8,1.8,2471.127,13.29,0.042,140.7
2023-01-15T05:49:03,42.805,6.029,0.019,-0.028,-0.012,105.0,102.0,102.0,13.4,1505.2,326.0,-0.8,1.8,2471.145,13.29,0.033,145.8
2023-01-15T05:52:03,42.805,6.029,0.045,-0.069,-0.061,103.0,103.0,102.0,13.4,1505.2,331.7,-0.8,1.8,2471.12,13.29,0.082,146.9
2023-01-15T05:55:03,42.805,6.029,0.037,-0.027,-0.021,103.0,102.0,103.0,13.3,1505.2,315.5,-0.7,1.8,2471.149,13.29,0.045,126.1
2023-01-15T05:58:03,42.805,6.029,0.026,-0.02,-0.02,103.0,103.0,102.0,13.4,1505.2,321.7,-0.8,1.8,2471.11,13.29,0.032,127.6
2023-01-15T06:04:02,42.805,6.029,-0.002,-0.013,-0.049,103.0,102.0,102.0,13.4,1505.2,335.4,-0.8,1.8,2471.202,13.28,0.013,188.7
2023-01-15T06:07:03,42.805,6.029,0.025,-0.025,-0.017,103.0,103.0,101.0,13.4,1505.2,338.5,-0.8,1.8,2471.171,13.28,0.035,135.0
2023-01-15T06:10:03,42.805,6.029,0.014,-0.05,-0.038,103.0,102.0,103.0,13.4,1505.2,329.7,-0.8,1.8,2471.174,13.28,0.051,164.4
2023-01-15T06:13:03,42.805,6.029,0.026,-0.05,-0.034,103.0,101.0,102.0,13.4,1505.2,322.6,-0.8,1.8,2471.145,13.28,0.056,152.5
2023-01-15T06:16:03,42.805,6.029,0.007,-0.034,-0.042,103.0,103.0,102.0,13.3,1505.2,323.1,-0.7,1.8,2471.157,13.29,0.034,168.4
2023-01-15T06:19:03,42.805,6.029,0.042,-0.027,-0.01,104.0,102.0,103.0,13.4,1505.2,322.2,-0.8,1.9,2471.107,13.29,0.049,122.7
2023-01-15T06:22:03,42.805,6.029,0.034,-0.024,-0.011,102.0,102.0,103.0,13.4,1505.2,319.5,-0.8,1.8,2471.144,13.29,0.041,125.2
2023-01-15T06:25:03,42.805,6.029,0.003,-0.037,-0.014,102.0,104.0,102.0,13.3,1505.2,337.2,-0.8,1.8,2471.162,13.29,0.037,175.4
2023-01-15T06:28:03,42.805,6.029,0.013,-0.046,-0.033,103.0,103.0,102.0,13.4,1505.2,324.4,-0.8,1.8,2471.14,13.29,0.047,164.2
2023-01-15T06:31:03,42.805,6.029,0.025,-0.048,-0.05,104.0,102.0,103.0,13.4,1505.2,324.1,-0.8,1.8,2471.118,13.29,0.054,152.5
2023-01-15T06:34:03,42.805,6.029,0.021,-0.043,-0.035,102.0,103.0,103.0,13.4,1505.2,329.8,-0.8,1.8,2471.148,13.29,0.047,154.0
2023-01-15T06:37:03,42.805,6.029,-0.012,-0.025,-0.014,104.0,103.0,102.0,13.4,1505.2,338.0,-0.7,1.8,2471.152,13.29,0.027,205.6
2023-01-15T06:40:03,42.805,6.029,0.015,-0.031,-0.023,105.0,102.0,102.0,13.4,1505.2,331.8,-0.8,1.9,2471.116,13.29,0.034,154.2
2023-01-15T06:43:03,42.805,6.029,0.032,-0.024,-0.038,103.0,103.0,102.0,13.3,1505.2,317.0,-0.7,1.8,2471.155,13.29,0.04,126.9
2023-01-15T06:46:03,42.805,6.029,0.0,-0.023,-0.03,104.0,102.0,102.0,13.3,1505.2,339.0,-0.8,1.8,2471.122,13.29,0.023,180.0
2023-01-15T06:49:03,42.805,6.029,0.011,-0.048,-0.043,102.0,103.0,102.0,13.4,1505.2,330.3,-0.8,1.8,2471.152,13.29,0.049,167.1
2023-01-15T06:52:03,42.805,6.029,0.018,-0.031,-0.015,102.0,103.0,101.0,13.4,1505.2,329.8,-0.8,1.8,2471.161,13.29,0.035,149.9
2023-01-15T06:55:03,42.805,6.029,0.015,-0.039,-0.063,103.0,102.0,103.0,13.3,1505.2,320.5,-0.8,1.8,2471.136,13.29,0.041,159.0
2023-01-15T06:58:03,42.805,6.029,0.001,-0.049,-0.022,104.0,103.0,102.0,13.4,1505.2,334.6,-0.7,1.8,2471.157,13.29,0.049,178.8
2023-01-15T07:04:03,42.805,6.029,0.02,-0.032,-0.009,103.0,102.0,101.0,13.4,1505.2,330.6,-0.7,1.8,2471.178,13.28,0.037,148.0
2023-01-15T07:07:03,42.805,6.029,0.011,-0.035,-0.029,103.0,102.0,102.0,13.4,1505.2,331.6,-0.8,1.8,2471.179,13.28,0.036,162.6
2023-01-15T07:10:03,42.805,6.029,0.023,-0.029,-0.067,102.0,102.0,102.0,13.3,1505.2,322.2,-0.7,1.8,2471.174,13.28,0.037,141.6
2023-01-15T07:13:03,42.805,6.029,0.001,-0.033,-0.03,103.0,102.0,102.0,13.4,1505.2,317.8,-0.8,1.8,2471.164,13.28,0.033,178.3
2023-01-15T07:16:03,42.805,6.029,0.0,-0.031,-0.037,103.0,103.0,102.0,13.3,1505.2,320.4,-0.7,1.9,2471.161,13.29,0.03,180.0
2023-01-15T07:19:03,42.805,6.029,0.002,-0.031,-0.045,102.0,102.0,103.0,13.3,1505.2,334.6,-0.7,1.8,2471.161,13.29,0.031,176.3
2023-01-15T07:22:03,42.805,6.029,0.016,-0.039,0.001,103.0,102.0,102.0,13.4,1505.2,330.9,-0.8,1.8,2471.156,13.29,0.042,157.7
2023-01-15T07:25:03,42.805,6.029,0.024,-0.04,0.001,102.0,101.0,103.0,13.4,1505.2,325.5,-0.8,1.8,2471.174,13.29,0.046,149.0
2023-01-15T07:28:03,42.805,6.029,-0.005,-0.043,-0.016,103.0,102.0,102.0,13.4,1505.2,336.3,-0.8,1.8,2471.156,13.29,0.043,186.6
2023-01-15T07:31:03,42.805,6.029,-0.011,-0.032,-0.029,102.0,102.0,103.0,13.3,1505.2,316.5,-0.7,1.8,2471.171,13.29,0.033,199.0
2023-01-15T07:34:03,42.805,6.029,-0.015,-0.028,-0.024,103.0,102.0,102.0,13.4,1505.2,328.3,-0.7,1.8,2471.157,13.29,0.031,208.2
2023-01-15T07:37:03,42.805,6.029,-0.008,-0.047,-0.037,104.0,102.0,103.0,13.3,1505.2,337.1,-0.8,1.9,2471.14,13.29,0.047,189.7
2023-01-15T07:40:03,42.805,6.029,0.016,-0.029,-0.001,103.0,101.0,102.0,13.3,1505.2,328.2,-0.7,1.8,2471.17,13.29,0.033,151.1
2023-01-15T07:43:03,42.805,6.029,0.026,-0.02,0.021,103.0,102.0,102.0,13.4,1505.2,332.3,-0.8,1.8,2471.153,13.29,0.032,127.6
2023-01-15T07:46:03,42.805,6.029,0.025,-0.022,-0.023,103.0,102.0,102.0,13.4,1505.2,317.0,-0.8,1.8,2471.152,13.29,0.033,131.3
2023-01-15T07:49:03,42.805,6.029,0.037,-0.028,-0.003,103.0,103.0,102.0,13.4,1505.2,328.8,-0.8,1.8,2471.159,13.29,0.046,127.1
2023-01-15T07:52:03,42.805,6.029,0.005,-0.041,-0.051,102.0,103.0,103.0,13.4,1505.2,323.1,-0.8,1.8,2471.14,13.29,0.041,173.0
2023-01-15T07:55:03,42.805,6.029,0.024,-0.055,-0.04,103.0,103.0,102.0,13.4,1505.2,320.3,-0.7,1.8,2471.136,13.29,0.06,156.4
2023-01-15T07:58:03,42.805,6.029,0.004,-0.026,-0.057,103.0,102.0,102.0,13.4,1505.2,323.6,-0.7,1.8,2471.16,13.29,0.026,171.3
2023-01-15T08:04:03,42.805,6.029,-0.028,-0.047,-0.058,103.0,102.0,102.0,13.4,1505.2,330.5,-0.7,1.8,2471.215,13.28,0.054,210.8
2023-01-15T08:07:03,42.805,6.029,-0.012,-0.041,-0.046,103.0,102.0,103.0,13.4,1505.2,330.2,-0.8,1.8,2471.214,13.28,0.042,196.3
2023-01-15T08:10:03,42.805,6.029,0.014,-0.045,-0.028,104.0,104.0,101.0,13.4,1505.2,319.4,-0.8,1.8,2471.183,13.28,0.047,162.7
2023-01-15T08:13:03,42.805,6.029,0.004,-0.042,-0.032,103.0,104.0,102.0,13.4,1505.2,333.8,-0.7,1.8,2471.176,13.28,0.042,174.6
2023-01-15T08:16:03,42.805,6.029,-0.023,-0.009,-0.025,104.0,104.0,101.0,13.4,1505.2,322.0,-0.7,1.8,2471.2,13.29,0.024,248.6
2023-01-15T08:19:03,42.805,6.029,0.023,-0.033,-0.017,101.0,104.0,103.0,13.4,1505.2,328.7,-0.7,1.8,2471.195,13.29,0.04,145.1
2023-01-15T08:22:03,42.805,6.029,0.006,-0.029,-0.036,103.0,103.0,102.0,13.4,1505.2,333.8,-0.8,1.8,2471.168,13.29,0.029,168.3
2023-01-15T08:25:03,42.805,6.029,0.017,-0.025,0.001,102.0,104.0,102.0,13.3,1505.2,321.1,-0.8,1.8,2471.162,13.29,0.03,145.8
2023-01-15T08:28:03,42.805,6.029,-0.002,-0.032,-0.022,104.0,103.0,102.0,13.4,1505.2,331.6,-0.8,1.8,2471.162,13.29,0.032,183.6
2023-01-15T08:31:03,42.805,6.029,-0.003,-0.048,-0.028,103.0,103.0,101.0,13.4,1505.2,337.8,-0.8,1.8,2471.205,13.29,0.048,183.6
2023-01-15T08:34:03,42.805,6.029,-0.001,-0.025,-0.027,102.0,103.0,102.0,13.3,1505.2,324.8,-0.8,1.8,2471.178,13.29,0.025,182.3
2023-01-15T08:37:03,42.805,6.029,-0.003,-0.029,-0.03,104.0,103.0,103.0,13.4,1505.2,325.1,-0.8,1.8,2471.131,13.29,0.029,185.9
2023-01-15T08:40:03,42.805,6.029,0.014,-0.028,-0.002,102.0,103.0,103.0,13.4,1505.2,324.7,-0.8,1.8,2471.149,13.29,0.031,153.4
2023-01-15T08:43:03,42.805,6.029,0.004,-0.021,-0.022,105.0,104.0,102.0,13.4,1505.2,336.3,-0.7,1.8,2471.148,13.29,0.021,169.2
2023-01-15T08:46:03,42.805,6.029,0.006,-0.027,0.0,104.0,105.0,101.0,13.4,1505.2,323.4,-0.8,1.8,2471.188,13.29,0.027,167.5
2023-01-15T08:49:03,42.805,6.029,0.02,-0.04,-0.06,103.0,103.0,102.0,13.4,1505.2,317.6,-0.8,1.8,2471.184,13.29,0.044,153.4
2023-01-15T08:52:03,42.805,6.029,0.014,-0.04,0.002,103.0,103.0,102.0,13.4,1505.2,338.2,-0.8,1.8,2471.188,13.29,0.042,160.7
2023-01-15T08:55:03,42.805,6.029,0.003,-0.023,-0.014,103.0,103.0,103.0,13.4,1505.2,321.4,-0.7,1.8,2471.159,13.29,0.023,172.6
2023-01-15T08:58:03,42.805,6.029,-0.007,-0.027,-0.047,104.0,103.0,102.0,13.4,1505.2,333.8,-0.8,1.8,2471.184,13.29,0.027,194.5
2023-01-15T09:04:03,42.805,6.029,-0.015,-0.032,-0.079,104.0,103.0,103.0,13.3,1505.2,335.3,-0.7,1.8,2471.234,13.28,0.035,205.1
2023-01-15T09:07:03,42.805,6.029,-0.008,-0.01,-0.029,103.0,104.0,103.0,13.4,1505.2,322.2,-0.7,1.8,2471.254,13.28,0.012,218.7
2023-01-15T09:10:03,42.805,6.029,-0.005,-0.014,-0.035,103.0,103.0,103.0,13.4,1505.2,325.3,-0.8,1.8,2471.221,13.28,0.014,199.6
2023-01-15T09:13:03,42.805,6.029,0.004,-0.033,-0.065,103.0,103.0,103.0,13.4,1505.2,318.1,-0.8,1.8,2471.233,13.29,0.033,173.1
2023-01-15T09:16:03,42.805,6.029,0.014,-0.034,-0.013,105.0,104.0,102.0,13.4,1505.2,315.0,-0.7,1.8,2471.169,13.29,0.036,157.6
2023-01-15T09:19:03,42.805,6.029,-0.009,-0.012,-0.014,103.0,103.0,103.0,13.4,1505.2,331.1,-0.8,1.8,2471.24,13.29,0.015,216.9
2023-01-15T09:22:03,42.805,6.029,0.007,-0.033,-0.012,103.0,104.0,103.0,13.4,1505.2,315.5,-0.7,1.8,2471.188,13.29,0.033,168.0
2023-01-15T09:25:03,42.805,6.029,0.022,-0.025,-0.011,104.0,103.0,102.0,13.3,1505.2,331.9,-0.8,1.8,2471.209,13.29,0.033,138.7
2023-01-15T09:28:03,42.805,6.029,-0.013,-0.019,-0.004,103.0,103.0,102.0,13.3,1505.2,317.8,-0.7,1.8,2471.189,13.29,0.023,214.4
2023-01-15T09:31:03,42.805,6.029,0.001,-0.021,-0.019,104.0,104.0,102.0,13.4,1505.2,320.5,-0.7,1.8,2471.172,13.29,0.021,177.3
2023-01-15T09:34:03,42.805,6.029,-0.016,-0.016,-0.028,103.0,103.0,103.0,13.3,1505.2,334.2,-0.7,1.8,2471.232,13.29,0.022,225.0
2023-01-15T09:37:03,42.805,6.029,0.005,-0.027,-0.005,104.0,103.0,103.0,13.4,1505.2,328.6,-0.8,1.8,2471.181,13.29,0.027,169.5
2023-01-15T09:40:03,42.805,6.029,0.004,-0.035,-0.036,104.0,103.0,103.0,13.4,1505.2,333.4,-0.7,1.8,2471.202,13.29,0.035,173.5
2023-01-15T09:43:03,42.805,6.029,0.001,-0.026,0.002,103.0,103.0,103.0,13.4,1505.2,338.2,-0.8,1.8,2471.216,13.29,0.026,177.8
2023-01-15T09:46:03,42.805,6.029,0.013,-0.046,-0.019,104.0,104.0,103.0,13.4,1505.2,320.1,-0.8,1.8,2471.199,13.29,0.047,164.2
2023-01-15T09:49:03,42.805,6.029,0.02,-0.03,-0.001,105.0,103.0,101.0,13.4,1505.2,324.2,-0.7,1.8,2471.194,13.29,0.036,146.3
2023-01-15T09:52:03,42.805,6.029,0.022,-0.014,0.014,104.0,102.0,103.0,13.4,1505.2,325.0,-0.8,1.8,2471.237,13.29,0.026,122.5